Powrót do katalogu

OPS 4682 DEB

AktywnyPO
NORAD 15529·DEBRIS·🇺🇸 United States

Wystrzelony Apr 3, 1965 z Vandenberg Space Force Base

Loading…

Następne Przeloty (najbliższe 24 godziny)

TLE

ŚwieżeSource: Space-Track

Epoka: Sep 14, 2026, 01:50 UTC

1 15529U 65027S   26257.07671450 -.00000377  00000-0 -12899-2 0  9994
2 15529  90.2432   8.2271 0033498 104.6753  71.2131 12.99303647168629

Śledź OPS 4682 DEB w czasie rzeczywistym z AllMySat

Download on the App Store